WIF152 ENSG-ENBR

Flight info

Callsign WIF152
Flight time 0h 22m
Altitude 12000
Route LUNUR
Aircraft DH8A/M-SDFGR/S

Departure

Time 2026-04-27 15:56
Airport Sogndal Airport, Haukåsen (ENSG)

Arrival

Time 2026-04-27 16:18
Airport Bergen Airport, Flesland (ENBR)
Time Latitude Longitude Altitude Speed Heading
2026-04-27 15:48 61.15726 7.13647 1631 ft 0 kts 105°
2026-04-27 15:53 61.15725 7.13649 1631 ft 0 kts 121°
2026-04-27 15:54 61.15700 7.13635 1630 ft 8 kts 193°
2026-04-27 15:54 61.15628 7.13697 1630 ft 14 kts 138°
2026-04-27 15:54 61.15648 7.13887 1632 ft 15 kts 60°
2026-04-27 15:54 61.15706 7.14092 1634 ft 17 kts 60°
2026-04-27 15:55 61.15772 7.14318 1634 ft 19 kts 59°
2026-04-27 15:55 61.15809 7.14446 1633 ft 9 kts 57°
2026-04-27 15:55 61.15808 7.14439 1633 ft 9 kts 241°
2026-04-27 15:55 61.15645 7.13855 1632 ft 91 kts 240°
2026-04-27 15:56 61.15229 7.12380 1792 ft 129 kts 241°
2026-04-27 15:56 61.14784 7.10755 2381 ft 135 kts 245°
2026-04-27 15:56 61.14361 7.09085 3103 ft 131 kts 245°
2026-04-27 15:56 61.13931 7.07448 3803 ft 129 kts 242°
2026-04-27 15:57 61.13478 7.05872 4481 ft 129 kts 242°
2026-04-27 15:57 61.13020 7.04300 5151 ft 130 kts 242°
2026-04-27 15:57 61.12551 7.02708 5824 ft 131 kts 242°
2026-04-27 15:57 61.12083 7.01131 6490 ft 132 kts 242°
2026-04-27 15:58 61.11612 6.99542 7148 ft 133 kts 243°
2026-04-27 15:58 61.11133 6.97936 7789 ft 135 kts 243°
2026-04-27 15:58 61.10645 6.96298 8402 ft 138 kts 243°
2026-04-27 15:58 61.10138 6.94611 8874 ft 140 kts 243°
2026-04-27 15:59 61.09623 6.92887 9325 ft 142 kts 244°
2026-04-27 15:59 61.09105 6.91158 9774 ft 144 kts 244°
2026-04-27 15:59 61.08579 6.89396 10227 ft 146 kts 244°
2026-04-27 15:59 61.08041 6.87594 10670 ft 148 kts 245°
2026-04-27 16:00 61.07504 6.85801 11110 ft 148 kts 245°
2026-04-27 16:00 61.07146 6.84604 11395 ft 149 kts 244°
2026-04-27 16:00 61.06421 6.82179 11962 ft 150 kts 245°
2026-04-27 16:00 61.05864 6.80317 12299 ft 158 kts 244°
2026-04-27 16:01 61.05243 6.78206 12357 ft 186 kts 244°
2026-04-27 16:01 61.04519 6.75773 12338 ft 214 kts 243°
2026-04-27 16:01 61.03681 6.72985 12292 ft 237 kts 243°
2026-04-27 16:01 61.02788 6.70026 12306 ft 252 kts 243°
2026-04-27 16:02 61.01826 6.66838 12274 ft 266 kts 243°
2026-04-27 16:02 61.00845 6.63582 12271 ft 275 kts 243°
2026-04-27 16:02 60.99815 6.60172 12267 ft 282 kts 242°
2026-04-27 16:02 60.98766 6.56703 12253 ft 288 kts 242°
2026-04-27 16:03 60.97706 6.53203 12260 ft 292 kts 242°
2026-04-27 16:03 60.96626 6.49645 12266 ft 295 kts 242°
2026-04-27 16:03 60.95541 6.46079 12292 ft 289 kts 242°
2026-04-27 16:03 60.94485 6.42623 12278 ft 280 kts 242°
2026-04-27 16:04 60.93466 6.39278 12124 ft 278 kts 242°
2026-04-27 16:04 60.92430 6.35885 11902 ft 279 kts 242°
2026-04-27 16:04 60.91394 6.32498 11699 ft 279 kts 241°
2026-04-27 16:04 60.90375 6.29164 11516 ft 278 kts 241°
2026-04-27 16:05 60.89344 6.25766 11329 ft 277 kts 242°
2026-04-27 16:05 60.88327 6.22414 11138 ft 277 kts 241°
2026-04-27 16:05 60.87289 6.19021 10960 ft 275 kts 241°
2026-04-27 16:05 60.86267 6.15697 10779 ft 275 kts 241°
2026-04-27 16:06 60.85249 6.12393 10606 ft 274 kts 241°
2026-04-27 16:06 60.84158 6.09183 10393 ft 277 kts 230°
2026-04-27 16:06 60.82518 6.07201 10213 ft 279 kts 199°
2026-04-27 16:06 60.80632 6.06212 10107 ft 276 kts 195°
2026-04-27 16:07 60.78799 6.05240 10209 ft 276 kts 196°
2026-04-27 16:07 60.76904 6.04191 10271 ft 280 kts 197°
2026-04-27 16:07 60.75075 6.03151 10263 ft 273 kts 197°
2026-04-27 16:07 60.73271 6.02115 10269 ft 268 kts 197°
2026-04-27 16:08 60.71490 6.01082 10267 ft 265 kts 197°
2026-04-27 16:08 60.69721 6.00057 10274 ft 262 kts 197°
2026-04-27 16:08 60.67981 5.99047 10279 ft 259 kts 197°
2026-04-27 16:08 60.66258 5.98045 10284 ft 257 kts 197°
2026-04-27 16:09 60.64544 5.97050 10287 ft 256 kts 197°
2026-04-27 16:09 60.61140 5.95092 10294 ft 254 kts 197°
2026-04-27 16:09 60.59428 5.94127 10299 ft 253 kts 197°
2026-04-27 16:10 60.56055 5.92195 10301 ft 252 kts 197°
2026-04-27 16:10 60.52985 5.89025 10316 ft 250 kts 214°
2026-04-27 16:11 60.51507 5.87184 10176 ft 248 kts 214°
2026-04-27 16:11 60.48554 5.83526 9529 ft 251 kts 213°
2026-04-27 16:12 60.45617 5.79908 8908 ft 243 kts 213°
2026-04-27 16:12 60.44168 5.78127 8350 ft 243 kts 213°
2026-04-27 16:12 60.41270 5.74563 7623 ft 243 kts 213°
2026-04-27 16:13 60.39834 5.72799 7389 ft 239 kts 214°
2026-04-27 16:13 60.37595 5.67868 6802 ft 248 kts 239°
2026-04-27 16:13 60.36665 5.64823 6363 ft 262 kts 243°
2026-04-27 16:14 60.35061 5.58328 5662 ft 258 kts 249°
2026-04-27 16:14 60.33430 5.51971 5212 ft 244 kts 244°
2026-04-27 16:15 60.31818 5.46136 4943 ft 232 kts 244°
2026-04-27 16:15 60.30359 5.40442 4559 ft 231 kts 244°
2026-04-27 16:16 60.28252 5.35692 4241 ft 227 kts 222°
2026-04-27 16:16 60.26394 5.30915 3493 ft 223 kts 258°
2026-04-27 16:17 60.26077 5.25640 1942 ft 152 kts 277°
2026-04-27 16:17 60.27208 5.22900 575 ft 116 kts 328°
2026-04-27 16:18 60.28524 5.22088 155 ft 49 kts 349°
2026-04-27 16:18 60.28666 5.22230 159 ft 0 kts 79°
2026-04-27 16:19 60.28667 5.22235 159 ft 1 kts 79°
2026-04-27 16:19 60.28674 5.22314 160 ft 11 kts 81°
2026-04-27 16:20 60.28692 5.22853 162 ft 13 kts 79°
2026-04-27 16:20 60.28698 5.22919 162 ft 0 kts 81°
2026-04-27 16:20 60.28698 5.22920 162 ft 0 kts 81°